This is the latest recevied weather packets stored in our database for station/object KD8OZS. If no packets are shown the sender has not sent any weather packets the latest 10 day(s).
| Time | Temp. | Humidity | Pressure | Rain* | Wind** | Luminosity | Snow |
|---|---|---|---|---|---|---|---|
| 1787489475 | 16.11° C | 98% | 1007.1 hPa | 0 mm | - | 164 W/m² | - |
| 1787489170 | 16.11° C | 99% | 1007.2 hPa | 0 mm | - | 172 W/m² | - |
| 1787488866 | 15.56° C | 99% | 1007 hPa | 0 mm | - | 130 W/m² | - |
| 1787488562 | 15.56° C | 99% | 1007.2 hPa | 0 mm | - | 139 W/m² | - |
| 1787488258 | 15.56° C | 99% | 1006.8 hPa | 0 mm | - | 120 W/m² | - |
| 1787487955 | 15.56° C | 99% | 1006.9 hPa | 0 mm | - | 93 W/m² | - |
| 1787487651 | 15.56° C | 99% | 1006.9 hPa | 0 mm | - | 69 W/m² | - |
| 1787487347 | 15.56° C | 99% | 1006.9 hPa | 0 mm | - | 63 W/m² | - |
| 1787487044 | 15.56° C | 99% | 1006.8 hPa | 0 mm | - | 60 W/m² | - |
| 1787486743 | 15° C | 99% | 1006.9 hPa | 0 mm | - | 71 W/m² | - |
| 1787486437 | 15° C | 99% | 1006.8 hPa | 0 mm | - | 58 W/m² | - |
| 1787486132 | 15° C | 99% | 1006.9 hPa | 0 mm | - | 63 W/m² | - |
| 1787485827 | 15° C | 99% | 1006.7 hPa | 0 mm | - | 57 W/m² | - |
| 1787485524 | 14.44° C | 99% | 1006.7 hPa | 0 mm | - | 56 W/m² | - |
| 1787485218 | 14.44° C | 99% | 1006.4 hPa | 0 mm | - | 41 W/m² | - |
| 1787484914 | 14.44° C | 99% | 1006.4 hPa | 0 mm | - | 36 W/m² | - |
| 1787484611 | 14.44° C | 99% | 1006.3 hPa | 0 mm | - | 35 W/m² | - |
| 1787484306 | 13.89° C | 99% | 1006.3 hPa | 0 mm | - | 24 W/m² | - |
| 1787484002 | 14.44° C | 99% | 1006.4 hPa | 0 mm | - | 21 W/m² | - |
| 1787483698 | 14.44° C | 99% | 1006.4 hPa | 0 mm | - | 16 W/m² | - |
| 1787483394 | 13.89° C | 99% | 1006.5 hPa | 1.78 mm | - | 13 W/m² | - |
| 1787483091 | 13.89° C | 99% | 1006.7 hPa | 1.78 mm | - | 10 W/m² | - |
| 1787482785 | 13.89° C | 99% | 1006.4 hPa | 0 mm | - | 7 W/m² | - |
| 1787482482 | 13.89° C | 99% | 1006.1 hPa | 0 mm | - | 4 W/m² | - |
| 1787482178 | 13.89° C | 99% | 1006.3 hPa | 0 mm | - | 2 W/m² | - |
* Rain latest hour (hover to see other rain measurements)
** Current wind speed in m/s (hover to see current wind gust speed)